Location: Blankensee
(53.5126°N, 14.3055°E)
Time: 17:43:42
(UTC+00:00)

TIMED - Pass Details

Date: 08 August 2020
Orbit: 602 x 604 km, 74.1° (Epoch: 19 September)

Event Time Altitude Azimuth Distance (km) Brightness Sun altitude
Rises 01:03:06 0° 333° (NNW) 2,873 8.5 -16.2°
Reaches altitude 10° 01:05:21 10° 333° (NNW) 1,965 7.6 -16.0°
Maximum altitude 01:09:44 85° 247° (WSW) 615 4.4 -15.7°
Enters shadow 01:13:46 12° 158° (SSE) 1,817 6.6 -15.4°
